Regional Weather Roundup
Issued by NWS

Home | Current Version | Previous Version | Text Only | Print | Product List | Glossary On
Versions: 1 2 3 4 5 6 7 8 9 10 11 12 13 14 15 16 17 18 19 20 21 22 23 24 25 26 27 28 29 30 31 32 33 34 35 36 37 38 39 40 41 42 43 44 45 46 47 48 49 50
000
ASUS44 KJAN 191310
RWRMS

MISSISSIPPI HOURLY WEATHER ROUNDUP
NATIONAL WEATHER SERVICE JACKSON MS
800 AM CDT FRI SEP 19 2014

NOTE: "FAIR: INDICATES FEW OR NO CLOUDS BELOW 12,000 FEET WITH NO
SIGNIFICANT WEATHER AND/OR OBSTRUCTIONS TO VISIBILITY.

MSZ001>002-007>008-010>013-018>021-025>028-034>036-191400-
NORTHWEST MISSISSIPPI

CITY           SKY/WX    TMP DP  RH WIND       PRES   REMARKS
CLARKSDALE     CLOUDY    66  66 100 NE5       30.02R VSB 1/4
CLEVELAND      CLOUDY    67  67 100 E6        29.99R FOG
GREENWOOD      CLOUDY    68  67  96 E3        30.00R
GREENVILLE     MOSUNNY   69  67  93 E3        29.99R
GRENADA        CLOUDY    66  66 100 SE6       30.03R
OLIVE BRANCH   FOG       64  64 100 N5        30.03R VSB 1/4
OXFORD         PTSUNNY   64  64 100 E5        30.04R
TUNICA         CLOUDY    64  64 100 N3        30.02R FOG
$$

MSZ003>006-009-014>017-022>024-029>033-037>039-191400-
NORTHEAST MISSISSIPPI

CITY           SKY/WX    TMP DP  RH WIND       PRES   REMARKS
COLUMBUS AFB   FOG       68  68 100 E2        30.03R VSB 1
CORINTH        PTSUNNY   66  64  94 CALM      30.03R FOG
GOLDN TRIANGLE MOSUNNY   68  64  88 CALM      30.03R FOG
STARKVILLE     CLOUDY    66  64  94 CALM      30.02R FOG
TUPELO         FOG       67  66  97 E3        30.03R VSB 1/4
$$

MSZ040-058-191400-
CENTRAL MISSISSIPPI

CITY           SKY/WX    TMP DP  RH WIND       PRES   REMARKS
JACKSON INTL   MOSUNNY   70  67  90 E5        29.99R
JACKSON HAWKNS SUNNY     71  66  84 E5        30.00R
MERIDIAN KEY   SUNNY     70  68  93 NE8       30.00R
MERIDIAN NAS   MOSUNNY   70  67  90 E3        30.02R
RAYMOND        FAIR      68  64  88 MISG      29.99S
VICKSBURG      SUNNY     70  67  90 E3        29.98R
$$

MSZ059>079-191400-
SOUTH MISSISSIPPI

CITY           SKY/WX    TMP DP  RH WIND       PRES   REMARKS
BROOKHAVEN     FAIR      68  68 100 CALM      30.01R FOG
COLUMBIA       FAIR      70  68  94 CALM      29.98R
HATTIESBURG    SUNNY     71  68  90 CALM      29.99R
MCCOMB         SUNNY     70  68  93 E6        29.98R
NATCHEZ        SUNNY     70  66  88 CALM      29.98R
PINE BELT      SUNNY     70  66  88 NE5       29.99R
$$

MSZ080>082-191400-
COASTAL MISSISSIPPI

CITY           SKY/WX    TMP DP  RH WIND       PRES   REMARKS
BAY ST LOUIS   MOSUNNY   72  66  83 CALM      29.96R
BILOXI         CLOUDY    74  71  90 NE5       29.96R
PASCAGOULA     CLOUDY    72  70  93 CALM      29.96R
GULFPORT       CLOUDY    73  70  90 N5        29.96R
$$



USA.gov is the U.S. government's official web portal to all federal, state and local government web resources and services.